Weather in Pereginskoe

Ukraine / Ivano-Frankovsk District     48°48′37″N   24°10′57″E
temp.,
°C
wind,
m/s
gust,
m/s
humid.,
%
clouds,
%
prec.,
mm/h
press.,
hPa
HPBL,
m
22 april, thu
thu2200:00+4sw358653 0.0 101694
03:00+4sw3788100 0.1 1016156
06:00+7sw31076100 0.0 1015626
09:00+9sw41068100 0.0 1015961
12:00+12sw51053100 0.0 10151552
15:00+13sw5952100 0.0 10141746
18:00+10wsw41068100 0.4 10131227
21:00+1w1399100 10.7 1020177
23 april, fri
fri2300:00+2sw2297100 0.4 102081
03:00+1sw2290100 0.4 102025
06:000wsw2190100 0.0 102014
09:00+3nnw1379100 0.0 1021458
12:00+6nw356948 0.4 10201205
15:00+6nw576779 1.3 10201538
18:00+5nw477290 0.7 10211233
21:00+1w258888 0.9 1023108
24 april, sat
sat2400:000wsw348941 0.1 102489
03:00−2wsw25907 0.1 1024113
06:00−3wsw239220 0.0 102455
09:00+2nw36665 0.0 10251208
12:00+5nw3646100 0.0 10242034
15:00+8nnw473988 0.0 10222180
18:00+8nnw464872 0.0 10211213
21:00+2s117584 0.0 102410
25 april, sun
sun2500:000sw2278100 0.0 102328
03:00+1sw227959 0.0 102142
06:00+1wnw118699 0.1 102197
09:00+2nne1193100 0.7 1021336
12:00+3nnw1395100 2.2 1021316
15:00+4n2495100 3.1 1020437
18:00+3nnw259580 0.5 1020385
21:00+2w2592100 1.2 1021192
26 april, mon
mon2600:00−2wsw22925 0.1 102322
03:00−3sw33885 0.1 102238
06:00−3sw33875 0.0 102250
09:00+3wnw366212 0.0 10201462
12:00+6nw4647100 0.0 10192063
15:00+8nnw4644100 0.1 10171905
18:00+6nne3356100 0.0 1017750
21:00+1sw1183100 0.0 101810